Groton, CT

2:26 PM EST on February 23, 2017 (GMT -0500)
Groton-New London

Weather History for KGON - May, 2014

Change the Weather History Date:

Thursday, May 15, 2014

  Actual Average Record
Temperature  
Mean Temperature 60 °F -  
Max Temperature 68 °F 64 °F 82 °F (1976)
Min Temperature 55 °F 45 °F 35 °F (2013)
Degree Days  
Heating Degree Days 4    
Growing Degree Days 10 (Base 50)    
Moisture  
Dew Point 57 °F    
Average Humidity 91    
Maximum Humidity 100    
Minimum Humidity 81    
Precipitation  
Precipitation 0.00 in - - ()
Sea Level Pressure  
Sea Level Pressure 30.24 in    
Wind  
Wind Speed 6 mph (SE)    
Max Wind Speed 13 mph    
Max Gust Speed -    
Visibility 7 miles    
Events Rain    
Averages and records for this station are not official NWS values.
T = Trace of Precipitation, MM = Missing Value Source: NWS Daily Summary

Daily Weather History Graph

Daily Weather History Graph

Search for Another Location

Airport or City:

Trip Planner

Search our weather history database for the weather conditions in past years. The results will help you decide how hot, cold, wet, or windy it might be!

Date:

Astronomy

May. 15, 2014 Rise Set
Actual Time 5:29 AM EDT 8:00 PM EDT
Civil Twilight 4:58 AM EDT 8:31 PM EDT
Nautical Twilight 4:18 AM EDT 9:10 PM EDT
Astronomical Twilight 3:35 AM EDT 9:55 PM EDT
Moon 9:05 PM EDT (5/15) 6:14 AM EDT (5/15)
Length of Visible Light 15h 33m
Length of Day
14h 30m
Full, 99% of the Moon is Illuminated
May 15
Full
May 21
Last Quarter
May 28
New
Jun 5
First Quarter
Jun 13
Full

Hourly Weather History & Observations

Time (EDT) Temp. Dew Point Humidity Pressure Visibility Wind Dir Wind Speed Gust Speed Precip Events Conditions
12:04 AM 59.0 °F 55.4 °F 88% 30.29 in 9.0 mi ENE 3.5 mph - N/A   Overcast
12:56 AM 57.0 °F 55.9 °F 96% 30.29 in 7.0 mi ESE 3.5 mph - 0.00 in   Overcast
1:56 AM 55.9 °F 55.0 °F 97% 30.27 in 7.0 mi ESE 10.4 mph - N/A   Overcast
2:56 AM 57.0 °F 55.0 °F 93% 30.27 in 8.0 mi East 4.6 mph - N/A   Overcast
3:56 AM 59.0 °F 57.0 °F 93% 30.27 in 8.0 mi Calm Calm - N/A   Overcast
4:56 AM 60.1 °F 57.9 °F 93% 30.26 in 8.0 mi ESE 6.9 mph - N/A   Overcast
5:56 AM 59.0 °F 57.9 °F 96% 30.25 in 6.0 mi ESE 12.7 mph - N/A   Overcast
6:56 AM 57.9 °F 57.0 °F 97% 30.26 in 7.0 mi ESE 8.1 mph - N/A   Overcast
7:19 AM 59.0 °F 57.2 °F 94% 30.27 in 7.0 mi Variable 5.8 mph - N/A   Overcast
7:27 AM 57.2 °F 57.2 °F 100% 30.27 in 7.0 mi Variable 4.6 mph - N/A   Overcast
7:56 AM 57.9 °F 55.9 °F 93% 30.27 in 7.0 mi ESE 4.6 mph - N/A   Overcast
8:56 AM 61.0 °F 57.0 °F 87% 30.27 in 8.0 mi SE 6.9 mph - N/A   Overcast
9:10 AM 62.6 °F 57.2 °F 82% 30.27 in 8.0 mi SE 9.2 mph - N/A   Scattered Clouds
9:56 AM 63.0 °F 57.9 °F 84% 30.26 in 8.0 mi SE 10.4 mph - N/A   Mostly Cloudy
10:53 AM 62.6 °F 57.2 °F 82% 30.26 in 8.0 mi ESE 9.2 mph - N/A   Overcast
10:56 AM 63.0 °F 57.9 °F 84% 30.26 in 8.0 mi ESE 10.4 mph - N/A   Overcast
11:56 AM 62.1 °F 59.0 °F 90% 30.26 in 7.0 mi East 6.9 mph - 0.00 in   Overcast
12:56 PM 63.0 °F 60.1 °F 90% 30.25 in 7.0 mi SSE 6.9 mph - N/A   Overcast
1:13 PM 64.4 °F 60.8 °F 88% 30.25 in 7.0 mi SSE 9.2 mph - N/A   Overcast
1:56 PM 64.0 °F 60.1 °F 87% 30.25 in 7.0 mi South 8.1 mph - N/A   Overcast
2:56 PM 66.0 °F 60.1 °F 81% 30.23 in 7.0 mi South 11.5 mph - N/A   Mostly Cloudy
3:56 PM 64.9 °F 60.1 °F 84% 30.21 in 7.0 mi SSE 9.2 mph - N/A   Partly Cloudy
4:56 PM 62.1 °F 57.9 °F 86% 30.20 in 6.0 mi Variable 3.5 mph - N/A   Overcast
5:54 PM 60.8 °F 57.2 °F 88% 30.21 in 6.0 mi South 4.6 mph - N/A   Overcast
5:56 PM 61.0 °F 57.0 °F 87% 30.21 in 6.0 mi South 5.8 mph - N/A   Overcast
6:21 PM 60.8 °F 57.2 °F 88% 30.20 in 6.0 mi SSE 5.8 mph - N/A   Overcast
6:56 PM 61.0 °F 57.9 °F 90% 30.20 in 6.0 mi SE 8.1 mph - N/A   Overcast
7:11 PM 60.8 °F 57.2 °F 88% 30.20 in 5.0 mi SE 8.1 mph - 0.00 in Rain Light Rain
7:56 PM 60.1 °F 57.0 °F 90% 30.20 in 7.0 mi SE 4.6 mph - 0.00 in   Overcast
8:56 PM 57.9 °F 57.0 °F 97% 30.21 in 6.0 mi SE 3.5 mph - 0.00 in   Overcast
9:49 PM 57.2 °F 57.2 °F 100% 30.20 in 6.0 mi SSE 6.9 mph - N/A   Overcast
9:56 PM 59.0 °F 57.0 °F 93% 30.20 in 6.0 mi SSE 10.4 mph - N/A   Overcast
10:05 PM 59.0 °F 57.2 °F 94% 30.20 in 6.0 mi SSE 10.4 mph - N/A   Overcast
10:56 PM 57.9 °F 55.9 °F 93% 30.19 in 6.0 mi East 5.8 mph - N/A   Overcast
11:56 PM 57.0 °F 55.9 °F 96% 30.18 in 6.0 mi SE 9.2 mph - N/A   Overcast